Вернуться в каталог

METEOR 2-1 DEB

АктивенPO
NORAD 57492·DEBRIS·🇷🇺 Russia

Запущен Jul 11, 1975 с Plesetsk Cosmodrome

Loading…

Ближайшие Пролёты (ближайшие 24 часа)

TLE

УстаревшееSource: Space-Track

Эпоха: Aug 22, 2026, 20:34 UTC

1 57492U 75064F   26234.85748935  .00000974  00000-0  37546-3 0  9993
2 57492  81.2750 292.4919 0008137 228.6446 131.4036 14.29628025412519

Отслеживайте METEOR 2-1 DEB в реальном времени с AllMySat

Download on the App Store